Weather History for Rome Fiumicino, Italy

Change the Weather History Date:

Wednesday, January 16, 2013

  Actual Average Record
Temperature  
Mean Temperature 44 °F -  
Max Temperature 50 °F 56 °F 59 °F (1999)
Min Temperature 37 °F 40 °F 32 °F (1997)
Degree Days  
Heating Degree Days 22    
Moisture  
Dew Point 38 °F    
Average Humidity 80    
Maximum Humidity 93    
Minimum Humidity 58    
Precipitation  
Precipitation 0.00 in 0.10 in - ()
Sea Level Pressure  
Sea Level Pressure 29.46 in    
Wind  
Wind Speed 13 mph ()    
Max Wind Speed 24 mph    
Max Gust Speed 36 mph    
Visibility 5.7 miles    
Events Rain , Thunderstorm    
Averages and records for this station are not official NWS values.
T = Trace of Precipitation, MM = Missing Value Source: Averaged Metar Reports

Daily Weather History Graph

Daily Weather History Graph

Search for Another Location

Airport:

Trip Planner

Search our weather history database for the weather conditions in past years. The results will help you decide how hot, cold, wet, or windy it might be!

Date:

Astronomy

Jan. 16, 2013 Rise Set
Actual Time 7:35 AM CET 5:06 PM CET
Civil Twilight 7:04 AM CET 5:37 PM CET
Nautical Twilight 6:30 AM CET 6:11 PM CET
Astronomical Twilight 5:57 AM CET 6:44 PM CET
Moon 9:58 AM CET (1/16) 10:46 PM CET (1/16)
Length of Visible Light 10h 32m
Length of Day
9h 30m
Waxing Crescent, 25% of the Moon is Illuminated
Jan 16
Waxing Crescent
Jan 19
First Quarter
Jan 27
Full
Feb 3
Last Quarter
Feb 10
New

Hourly Weather History & Observations

Time (CET) Temp. Windchill Dew Point Humidity Pressure Visibility Wind Dir Wind Speed Gust Speed Precip Events Conditions
12:20 AM 46.4 °F 40.1 °F 41.0 °F 81% 29.53 in 6.2 mi ESE 15.0 mph - N/A   Scattered Clouds
12:50 AM 46.4 °F 40.4 °F 42.8 °F 87% 29.50 in 6.2 mi ESE 13.8 mph - N/A Rain Rain
1:20 AM 46.4 °F 41.1 °F 42.8 °F 87% 29.50 in 6.2 mi SE 11.5 mph - N/A   Mostly Cloudy
1:50 AM 46.4 °F 38.5 °F 41.0 °F 81% 29.50 in 3.7 mi SW 21.9 mph - N/A Rain Rain
2:20 AM 44.6 °F 36.1 °F 41.0 °F 87% 29.50 in 3.7 mi SW 21.9 mph - N/A Rain Rain
2:50 AM 42.8 °F 35.1 °F 39.2 °F 87% 29.50 in 4.3 mi WSW 16.1 mph - N/A Rain Light Rain
3:20 AM 44.6 °F 40.7 °F 39.2 °F 81% 29.47 in 4.3 mi WSW 6.9 mph - N/A Rain Light Rain
3:50 AM 44.6 °F 42.2 °F 39.2 °F 81% 29.47 in 6.2 mi SSE 4.6 mph - N/A Rain Light Rain
4:20 AM 46.4 °F 40.7 °F 39.2 °F 76% 29.44 in 6.2 mi WSW 12.7 mph - N/A   Scattered Clouds
4:50 AM 46.4 °F 39.2 °F 35.6 °F 66% 29.44 in 6.2 mi WSW 18.4 mph - N/A   Scattered Clouds
5:20 AM 46.4 °F 38.7 °F 33.8 °F 62% 29.44 in 6.2 mi SW 20.7 mph - N/A   Partly Cloudy
5:50 AM 46.4 °F 38.3 °F 35.6 °F 66% 29.42 in 6.2 mi SW 23.0 mph - N/A   Scattered Clouds
6:20 AM 42.8 °F 33.8 °F 33.8 °F 70% 29.44 in 5.0 mi SW 21.9 mph 35.7 mph N/A Rain Rain
6:50 AM 42.8 °F 39.3 °F 37.4 °F 81% 29.44 in 6.2 mi NW 5.8 mph - N/A   Partly Cloudy
7:20 AM 41.0 °F 35.2 °F 37.4 °F 87% 29.44 in 6.2 mi West 9.2 mph - N/A Rain Rain
7:50 AM 42.8 °F 38.6 °F 37.4 °F 81% 29.44 in 6.2 mi SW 6.9 mph - N/A Rain Rain
8:20 AM 41.0 °F 30.9 °F 37.4 °F 87% 29.44 in 3.7 mi SW 24.2 mph - N/A Rain , Thunderstorm Thunderstorms and Rain
8:50 AM 41.0 °F 30.9 °F 37.4 °F 87% 29.44 in 3.1 mi SW 24.2 mph - N/A Rain , Thunderstorm Light Thunderstorms and Rain
9:20 AM 41.0 °F 31.6 °F 37.4 °F 87% 29.47 in 3.1 mi West 20.7 mph - N/A Rain Light Rain
9:50 AM 42.8 °F 34.8 °F 39.2 °F 87% 29.44 in 5.0 mi WSW 17.3 mph 29.9 mph N/A Rain Light Rain
10:20 AM 46.4 °F 40.1 °F 37.4 °F 71% 29.44 in 6.2 mi WSW 15.0 mph - N/A Rain Light Rain
10:50 AM 46.4 °F 39.2 °F 37.4 °F 71% 29.44 in 6.2 mi SW 18.4 mph - N/A   Scattered Clouds
11:20 AM 48.2 °F - 39.2 °F 71% 29.44 in 6.2 mi WSW 20.7 mph - N/A   Scattered Clouds
11:50 AM 48.2 °F - 35.6 °F 62% 29.44 in 6.2 mi West 19.6 mph - N/A   Scattered Clouds
12:20 PM 50.0 °F - 37.4 °F 62% 29.42 in 6.2 mi West 21.9 mph - N/A   Scattered Clouds
12:50 PM 50.0 °F - 35.6 °F 58% 29.42 in 6.2 mi West 21.9 mph - N/A   Scattered Clouds
1:20 PM 48.2 °F - 37.4 °F 66% 29.42 in 6.2 mi West 23.0 mph - N/A   Mostly Cloudy
1:50 PM 46.4 °F 39.5 °F 41.0 °F 81% 29.42 in 6.2 mi WNW 17.3 mph 28.8 mph N/A Rain Light Rain
2:20 PM 46.4 °F 38.1 °F 39.2 °F 76% 29.42 in 5.0 mi WNW 24.2 mph 35.7 mph N/A Rain , Thunderstorm Light Thunderstorms and Rain
2:50 PM 46.4 °F 38.7 °F 39.2 °F 76% 29.44 in 6.2 mi NW 20.7 mph - N/A Rain Light Rain
3:20 PM 44.6 °F 39.2 °F 39.2 °F 81% 29.44 in 6.2 mi NNW 10.4 mph - N/A Rain Light Rain
3:50 PM 44.6 °F 38.8 °F 39.2 °F 81% 29.47 in 5.0 mi NNW 11.5 mph - N/A Rain Rain
4:20 PM 44.6 °F 38.8 °F 39.2 °F 81% 29.47 in 6.2 mi NW 11.5 mph - N/A Thunderstorm Thunderstorm
4:50 PM 42.8 °F 36.6 °F 39.2 °F 87% 29.47 in 6.2 mi NNW 11.5 mph - N/A Rain Light Rain
5:20 PM 42.8 °F 38.0 °F 37.4 °F 81% 29.50 in 6.2 mi North 8.1 mph - N/A   Mostly Cloudy
5:50 PM 41.0 °F 36.4 °F 37.4 °F 87% 29.50 in 6.2 mi NNW 6.9 mph - N/A Rain Light Rain
6:20 PM 42.8 °F 40.1 °F 37.4 °F 81% 29.50 in 6.2 mi North 4.6 mph - N/A Rain Light Rain
6:50 PM 39.2 °F 34.2 °F 35.6 °F 87% 29.50 in 6.2 mi NE 6.9 mph - N/A   Partly Cloudy
7:20 PM 39.2 °F 34.2 °F 35.6 °F 87% 29.50 in - East 6.9 mph - N/A   Clear
7:50 PM 41.0 °F 36.4 °F 35.6 °F 81% 29.50 in - ESE 6.9 mph - N/A   Clear
8:20 PM 39.2 °F 34.2 °F 35.6 °F 87% 29.50 in - East 6.9 mph - N/A   Clear
8:50 PM 39.2 °F 33.6 °F 35.6 °F 87% 29.50 in - East 8.1 mph - N/A   Clear
9:20 PM 39.2 °F 34.2 °F 35.6 °F 87% 29.47 in 6.2 mi East 6.9 mph - N/A   Partly Cloudy
9:50 PM 39.2 °F 33.6 °F 35.6 °F 87% 29.47 in 6.2 mi ENE 8.1 mph - N/A   Partly Cloudy
10:20 PM 39.2 °F 33.6 °F 35.6 °F 87% 29.47 in 6.2 mi East 8.1 mph - N/A   Partly Cloudy
10:50 PM 39.2 °F 34.2 °F 35.6 °F 87% 29.47 in 6.2 mi ESE 6.9 mph - N/A   Partly Cloudy
11:20 PM 37.4 °F 32.1 °F 35.6 °F 93% 29.44 in 6.2 mi East 6.9 mph - N/A   Partly Cloudy
11:50 PM 39.2 °F 33.6 °F 35.6 °F 87% 29.44 in 6.2 mi East 8.1 mph - N/A   Partly Cloudy